Terminal Aerodrome Forecast
Issued by NWS

Home | Current Version | Previous Version | Text Only | Print | Product List | Glossary On
Versions: 1 2 3 4 5 6 7 8 9 10 11 12 13 14 15 16 17 18 19 20 21 22 23 24
576
FTUS44 KFWD 250520
TAFAFW
TAF
KAFW 250520Z 2506/2606 15008KT P6SM SCT250
     FM252000 10007KT P6SM VCTS SCT060CB
     FM260000 10008KT P6SM VCSH SCT060 BKN120
     FM260200 13006KT P6SM SCT120 BKN300=

USA.gov is the U.S. government's official web portal to all federal, state and local government web resources and services.